User: anonymous   Login
Location: Los Gatos B&B
(42.6926°N, 77.0646°W)
Time: 02:26:50
(UTC-04:00)
Language:

SL-16 R/B - Orbit

View from above orbital plane
View from above orbital plane
View from above satellite
View from above satellite

Ground track
Ground track

The orbit data is extracted from the following two-line orbital elements,

1 28353U 04021B   17232.72732071  .00000269  00000-0  16618-3 0  9994
2 28353  71.0019 303.1149 0003072 108.4512 251.6944 14.14200321681289
Epoch (UTC): 20 August 2017 17:27:20
Eccentricity: 0.0003072
inclination: 71.0019°
perigee height: 843 km
apogee height: 847 km
right ascension of ascending node: 303.1149°
argument of perigee: 108.4512°
revolutions per day: 14.14200321
mean anomaly at epoch: 251.6944°
orbit number at epoch: 68128

The dashed part of the orbit path shows where the satellite is in the earth's shadow,  

DLR